When you browse on this site, cookies collect data to enhance your experience and personalize the content and advertising you see.
Visit our Privacy Policy to learn more. By continuing to use the site, you agree to this use of cookies and data.
  • In Latvia
  • List of Countries
  • For 7 days
  • Water Temperature
  • Satellite Maps
  • Weather Map
  • Weather Widgets
  • user-avatar
    Login

    Hourly Weather San Antonio

    Today, 18 July, Thursday

    Time Temperature Precipitation Wind Pressure Humidity
    00:00 +28°C° 0 mm 3 mps 744 mmHg 76%
    01:00 +27°C° 0 mm 3 mps 744 mmHg 79%
    02:00 +27°C° 0 mm 3 mps 743 mmHg 82%
    03:00 +27°C° 0 mm 3 mps 743 mmHg 84%
    04:00 +26°C° 0 mm 3 mps 744 mmHg 87%
    05:00 +26°C° 0 mm 3 mps 744 mmHg 89%
    06:00 +28°C° 0 mm 3 mps 744 mmHg 83%
    07:00 +29°C° 0 mm 4 mps 744 mmHg 76%
    08:00 +32°C° 0 mm 5 mps 744 mmHg 69%
    09:00 +33°C° 0 mm 5 mps 744 mmHg 60%
    10:00 +35°C° 0 mm 5 mps 743 mmHg 52%
    11:00 +37°C° 0 mm 5 mps 743 mmHg 43%
    12:00 +39°C° 0 mm 5 mps 743 mmHg 40%
    13:00 +40°C° 0 mm 5 mps 742 mmHg 36%
    14:00 +41°C° 0 mm 5 mps 741 mmHg 32%
    15:00 +40°C° 0 mm 6 mps 741 mmHg 35%
    16:00 +39°C° 0 mm 6 mps 740 mmHg 38%
    17:00 +39°C° 0 mm 7 mps 740 mmHg 42%
    18:00 +36°C° 0 mm 7 mps 741 mmHg 50%
    19:00 +33°C° 0 mm 7 mps 741 mmHg 58%
    20:00 +30°C° 0 mm 7 mps 741 mmHg 67%
    21:00 +30°C° 0 mm 6 mps 742 mmHg 69%
    22:00 +29°C° 0 mm 6 mps 742 mmHg 71%
    23:00 +29°C° 0 mm 5 mps 742 mmHg 73%

    Tomorrow, 19 July, Friday

    Time Temperature Precipitation Wind Pressure Humidity
    00:00 +28°C° 0 mm 4 mps 742 mmHg 77%
    01:00 +27°C° 0 mm 4 mps 742 mmHg 81%
    02:00 +27°C° 0 mm 3 mps 742 mmHg 85%
    03:00 +26°C° 0 mm 3 mps 742 mmHg 88%
    04:00 +26°C° 0 mm 2 mps 742 mmHg 90%
    05:00 +26°C° 0 mm 2 mps 742 mmHg 93%
    06:00 +27°C° 0 mm 3 mps 742 mmHg 85%
    07:00 +29°C° 0 mm 4 mps 742 mmHg 77%
    08:00 +30°C° 0 mm 5 mps 743 mmHg 69%
    09:00 +33°C° 0 mm 5 mps 743 mmHg 60%
    10:00 +35°C° 0 mm 5 mps 743 mmHg 51%
    11:00 +37°C° 0 mm 5 mps 742 mmHg 42%
    12:00 +39°C° 0 mm 5 mps 742 mmHg 39%
    13:00 +40°C° 0 mm 5 mps 741 mmHg 37%
    14:00 +41°C° 0 mm 6 mps 741 mmHg 34%
    15:00 +40°C° 0 mm 6 mps 740 mmHg 39%
    16:00 +39°C° 0 mm 7 mps 740 mmHg 44%
    17:00 +38°C° 0 mm 7 mps 740 mmHg 48%
    18:00 +35°C° 0 mm 7 mps 740 mmHg 55%
    19:00 +33°C° 0 mm 7 mps 741 mmHg 61%
    20:00 +32°C° 0 mm 7 mps 741 mmHg 68%
    21:00 +30°C° 0 mm 6 mps 741 mmHg 71%
    22:00 +29°C° 0 mm 5 mps 742 mmHg 75%
    23:00 +28°C° 0 mm 5 mps 742 mmHg 79%

    Day after tomorrow, 20 July, Saturday

    Time Temperature Precipitation Wind Pressure Humidity
    00:00 +28°C° 0 mm 4 mps 742 mmHg 81%
    01:00 +27°C° 0 mm 4 mps 742 mmHg 83%
    02:00 +27°C° 0 mm 3 mps 741 mmHg 86%
    03:00 +27°C° 0 mm 3 mps 741 mmHg 89%
    04:00 +26°C° 0 mm 3 mps 742 mmHg 92%
    05:00 +26°C° 0 mm 2 mps 742 mmHg 95%
    06:00 +27°C° 0 mm 3 mps 742 mmHg 85%
    07:00 +29°C° 0 mm 4 mps 742 mmHg 76%
    08:00 +32°C° 0 mm 5 mps 743 mmHg 67%
    09:00 +34°C° 0 mm 5 mps 742 mmHg 57%
    10:00 +35°C° 0 mm 5 mps 742 mmHg 48%
    11:00 +37°C° 0 mm 5 mps 742 mmHg 38%
    12:00 +39°C° 0 mm 5 mps 741 mmHg 35%
    13:00 +40°C° 0 mm 5 mps 741 mmHg 32%
    14:00 +41°C° 0 mm 4 mps 740 mmHg 28%
    15:00 +40°C° 0 mm 5 mps 740 mmHg 32%
    16:00 +39°C° 0 mm 6 mps 740 mmHg 36%
    17:00 +38°C° 0 mm 6 mps 739 mmHg 40%
    18:00 +35°C° 0 mm 6 mps 740 mmHg 47%
    19:00 +34°C° 0 mm 7 mps 740 mmHg 54%
    20:00 +32°C° 0 mm 7 mps 741 mmHg 61%
    21:00 +30°C° 0 mm 6 mps 741 mmHg 64%
    22:00 +29°C° 0 mm 5 mps 741 mmHg 67%
    23:00 +28°C° 0 mm 5 mps 741 mmHg 70%

    21 July, Sunday

    Time Temperature Precipitation Wind Pressure Humidity
    00:00 +28°C° 0 mm 4 mps 741 mmHg 72%
    01:00 +27°C° 0 mm 3 mps 741 mmHg 74%
    02:00 +27°C° 0 mm 2 mps 741 mmHg 76%
    03:00 +26°C° 0 mm 2 mps 742 mmHg 79%
    04:00 +26°C° 0 mm 2 mps 742 mmHg 82%
    05:00 +26°C° 0 mm 2 mps 742 mmHg 84%
    06:00 +27°C° 0 mm 2 mps 743 mmHg 78%
    07:00 +29°C° 0 mm 3 mps 743 mmHg 71%
    08:00 +30°C° 0 mm 4 mps 743 mmHg 64%
    09:00 +33°C° 0 mm 4 mps 743 mmHg 55%
    10:00 +35°C° 0 mm 4 mps 743 mmHg 47%
    11:00 +37°C° 0 mm 4 mps 743 mmHg 38%
    12:00 +38°C° 0 mm 4 mps 743 mmHg 35%
    13:00 +40°C° 0 mm 4 mps 742 mmHg 31%
    14:00 +41°C° 0 mm 4 mps 742 mmHg 28%
    15:00 +40°C° 0 mm 4 mps 741 mmHg 31%
    16:00 +39°C° 0 mm 5 mps 741 mmHg 34%
    17:00 +39°C° 0 mm 5 mps 741 mmHg 37%
    18:00 +36°C° 0 mm 6 mps 741 mmHg 46%
    19:00 +34°C° 0 mm 6 mps 742 mmHg 54%
    20:00 +32°C° 0 mm 6 mps 742 mmHg 63%
    21:00 +30°C° 0 mm 5 mps 742 mmHg 67%
    22:00 +29°C° 0 mm 4 mps 743 mmHg 71%
    23:00 +28°C° 0 mm 3 mps 743 mmHg 75%

    22 July, Monday

    Time Temperature Precipitation Wind Pressure Humidity
    00:00 +28°C° 0 mm 2 mps 743 mmHg 78%
    01:00 +27°C° 0 mm 2 mps 743 mmHg 81%
    02:00 +26°C° 0 mm 1 mps 743 mmHg 84%
    03:00 +26°C° 0 mm 1 mps 743 mmHg 86%
    04:00 +26°C° 0 mm 1 mps 743 mmHg 88%
    05:00 +26°C° 0 mm 1 mps 744 mmHg 90%
    06:00 +27°C° 0 mm 1 mps 744 mmHg 85%
    07:00 +28°C° 0 mm 1 mps 744 mmHg 79%
    08:00 +29°C° 0 mm 2 mps 745 mmHg 73%
    09:00 +30°C° 0 mm 2 mps 745 mmHg 67%
    10:00 +31°C° 0 mm 1 mps 745 mmHg 61%
    11:00 +32°C° 0 mm 1 mps 744 mmHg 55%
    12:00 +34°C° 0 mm 2 mps 744 mmHg 50%
    13:00 +35°C° 0 mm 2 mps 743 mmHg 45%
    14:00 +36°C° 0 mm 3 mps 742 mmHg 41%
    15:00 +36°C° 0 mm 3 mps 742 mmHg 40%
    16:00 +36°C° 0 mm 3 mps 742 mmHg 39%
    17:00 +36°C° 0 mm 3 mps 741 mmHg 38%
    18:00 +35°C° 0.1 mm 3 mps 742 mmHg 43%
    19:00 +33°C° 0.1 mm 3 mps 743 mmHg 48%
    20:00 +30°C° 0.1 mm 4 mps 744 mmHg 53%
    21:00 +29°C° 0 mm 3 mps 744 mmHg 61%
    22:00 +28°C° 0 mm 2 mps 744 mmHg 70%
    23:00 +27°C° 0 mm 2 mps 744 mmHg 78%

    23 July, Tuesday

    Time Temperature Precipitation Wind Pressure Humidity
    00:00 +27°C° 0.1 mm 1 mps 744 mmHg 78%
    01:00 +27°C° 0.1 mm 1 mps 744 mmHg 78%
    02:00 +27°C° 0.1 mm 1 mps 744 mmHg 77%
    03:00 +27°C° 0.5 mm 1 mps 744 mmHg 78%
    04:00 +27°C° 0.5 mm 2 mps 744 mmHg 79%
    05:00 +27°C° 0.5 mm 3 mps 744 mmHg 80%
    06:00 +27°C° 0.4 mm 3 mps 744 mmHg 78%
    07:00 +27°C° 0.4 mm 4 mps 745 mmHg 76%
    08:00 +28°C° 0.4 mm 5 mps 745 mmHg 74%
    09:00 +29°C° 0.4 mm 4 mps 745 mmHg 71%
    10:00 +29°C° 0.4 mm 4 mps 745 mmHg 67%
    11:00 +30°C° 0.4 mm 4 mps 745 mmHg 64%
    12:00 +31°C° 0.4 mm 3 mps 745 mmHg 60%
    13:00 +31°C° 0.4 mm 3 mps 744 mmHg 57%
    14:00 +32°C° 0.4 mm 2 mps 744 mmHg 53%
    15:00 +33°C° 0.4 mm 3 mps 743 mmHg 53%
    16:00 +33°C° 0.4 mm 3 mps 743 mmHg 53%
    17:00 +33°C° 0.4 mm 3 mps 743 mmHg 53%
    18:00 +31°C° 0 mm 3 mps 743 mmHg 58%
    19:00 +30°C° 0 mm 3 mps 743 mmHg 63%
    20:00 +28°C° 0 mm 3 mps 744 mmHg 68%
    21:00 +28°C° 0 mm 3 mps 744 mmHg 71%
    22:00 +27°C° 0 mm 3 mps 744 mmHg 73%
    23:00 +27°C° 0 mm 4 mps 744 mmHg 75%
    Show more